2021-033K (48257 NORAD) Tracking and Keplerian Element Data

This shows tracking and keplerian element data for the satellite.

Feedback or suggestion? Click here.




ElementValue
Catalog48257
Name2021-033K
Epoch Orbit302
Epoch Day136.91623887
Epoch Year2021
RAAN212.4807
Inclination97.321
Eccentricity0.0122341
Argument of Perigee272.4778
Mean Anonmoly174.7422
Mean Motion15.32644509
Decay Rate1.845E-05
L11 48257U 21033K 21136.91623887 .00001845 00000-0 48631-4 0 9996
L22 48257 97.3210 212.4807 0122341 272.4778 174.7422 15.32644509 3025

Live tracking and technical data element details for 2021-033K (NORAD 48257). 2021-033K can be tracked NOW for your location showing map with azimuth and elevation plus other details from your city location.

Track the satellite on the map from your city or location and see movement details for azimuth, elevation, latitude, longitude, range, height, and movement on the map or in text.







IsCatalogInMostPopularTable: catalog: 48257, numindb: 7
Update: records affected: 1



GetName: 48257 2021-033K

Hit Count: updated at: Mon, 17 May 2021 16:09:09 GMT